Weather History for Clarksville, TX

Change the Weather History Date:

Friday, February 15, 2013

  Actual Average (KPRX) Record (KPRX)
Temperature  
Mean Temperature 42 °F -  
Max Temperature 51 °F 56 °F 77 °F (2000)
Min Temperature 32 °F 38 °F 19 °F (2007)
Degree Days  
Heating Degree Days 24    
Moisture  
Dew Point 26 °F    
Average Humidity 49    
Maximum Humidity 81    
Minimum Humidity 22    
Precipitation  
Precipitation 0.03 in - - ()
Sea Level Pressure  
Sea Level Pressure 30.27 in    
Wind  
Wind Speed 7 mph (NNW)    
Max Wind Speed 14 mph    
Max Gust Speed 21 mph    
Visibility 10 miles    
Events      
Averages and records for this station are not official NWS values.
T = Trace of Precipitation, MM = Missing Value Source: NWS Daily Summary

Daily Weather History Graph

Daily Weather History Graph

Search for Another Location

Airport:

Trip Planner

Search our weather history database for the weather conditions in past years. The results will help you decide how hot, cold, wet, or windy it might be!

Date:

Astronomy

Feb. 15, 2013 Rise Set
Actual Time 7:04 AM CST 6:05 PM CST
Civil Twilight 6:38 AM CST 6:30 PM CST
Nautical Twilight 6:09 AM CST 6:59 PM CST
Astronomical Twilight 5:40 AM CST 7:28 PM CST
Moon 9:59 AM CST (2/15) 11:46 PM CST (2/15)
Length of Visible Light 11h 51m
Length of Day
11h 00m
Waxing Crescent, 30% of the Moon is Illuminated
Feb 15
Waxing Crescent
Feb 17
First Quarter
Feb 25
Full
Mar 4
Last Quarter
Mar 11
New

Hourly Weather History & Observations

Time (CST) Temp. Windchill Dew Point Humidity Pressure Visibility Wind Dir Wind Speed Gust Speed Precip Events Conditions
12:15 AM 48.2 °F - 33.8 °F 58% 30.12 in 10.0 mi North 8.1 mph - N/A   Clear
12:35 AM 46.4 °F 42.9 °F 33.8 °F 62% 30.13 in 10.0 mi NNW 6.9 mph - N/A   Clear
12:55 AM 46.4 °F 42.9 °F 33.8 °F 62% 30.13 in 10.0 mi NNW 6.9 mph - N/A   Clear
1:15 AM 46.4 °F 43.5 °F 33.8 °F 62% 30.14 in 10.0 mi North 5.8 mph - N/A   Clear
1:35 AM 46.4 °F 44.3 °F 33.8 °F 62% 30.15 in 10.0 mi North 4.6 mph - N/A   Clear
1:55 AM 44.6 °F 41.4 °F 33.8 °F 66% 30.16 in 10.0 mi NNW 5.8 mph - N/A   Clear
2:15 AM 44.6 °F 41.4 °F 33.8 °F 66% 30.16 in 10.0 mi NNW 5.8 mph - N/A   Clear
2:35 AM 44.6 °F 42.2 °F 33.8 °F 66% 30.17 in 10.0 mi NW 4.6 mph - N/A   Clear
2:55 AM 46.4 °F 43.5 °F 33.8 °F 62% 30.18 in 10.0 mi NW 5.8 mph - N/A   Clear
3:15 AM 46.4 °F 43.5 °F 33.8 °F 62% 30.19 in 10.0 mi NNW 5.8 mph - N/A   Scattered Clouds
3:35 AM 46.4 °F 42.9 °F 33.8 °F 62% 30.19 in 10.0 mi NNW 6.9 mph - N/A   Scattered Clouds
3:55 AM 46.4 °F 43.5 °F 33.8 °F 62% 30.19 in 10.0 mi NNW 5.8 mph - N/A   Clear
4:15 AM 46.4 °F 44.3 °F 33.8 °F 62% 30.20 in 10.0 mi NNW 4.6 mph - N/A   Scattered Clouds
4:35 AM 48.2 °F - 32.0 °F 54% 30.20 in 10.0 mi NNW 9.2 mph - N/A   Scattered Clouds
4:55 AM 48.2 °F - 32.0 °F 54% 30.20 in 10.0 mi North 6.9 mph - N/A   Scattered Clouds
5:15 AM 46.4 °F 43.5 °F 32.0 °F 57% 30.21 in 10.0 mi North 5.8 mph - N/A   Scattered Clouds
5:35 AM 46.4 °F 42.4 °F 32.0 °F 57% 30.21 in 10.0 mi NNW 8.1 mph - N/A   Clear
6:15 AM 46.4 °F 41.9 °F 35.6 °F 66% 30.23 in 10.0 mi NNW 9.2 mph - N/A   Clear
6:35 AM 44.6 °F 39.7 °F 35.6 °F 71% 30.24 in 10.0 mi NNW 9.2 mph - N/A   Clear
6:55 AM 44.6 °F 39.2 °F 37.4 °F 76% 30.26 in 7.0 mi NW 10.4 mph - N/A   Mostly Cloudy
7:15 AM 42.8 °F 37.5 °F 37.4 °F 81% 30.26 in 4.0 mi NNW 9.2 mph 16.1 mph 0.02 in   Overcast
7:35 AM 42.8 °F 40.1 °F 37.4 °F 81% 30.27 in 7.0 mi NNW 4.6 mph - 0.03 in   Scattered Clouds
7:55 AM 42.8 °F 40.1 °F 37.4 °F 81% 30.28 in 10.0 mi NNW 4.6 mph - 0.03 in   Scattered Clouds
8:15 AM 42.8 °F 39.3 °F 37.4 °F 81% 30.28 in 10.0 mi NNW 5.8 mph - N/A   Clear
8:35 AM 44.6 °F 41.4 °F 37.4 °F 76% 30.29 in 10.0 mi NW 5.8 mph - N/A   Clear
8:55 AM 44.6 °F 40.7 °F 35.6 °F 71% 30.30 in 10.0 mi NW 6.9 mph - N/A   Clear
9:15 AM 44.6 °F 40.2 °F 35.6 °F 71% 30.30 in 10.0 mi NNW 8.1 mph - N/A   Clear
9:35 AM 44.6 °F 40.2 °F 35.6 °F 71% 30.31 in 10.0 mi NNW 8.1 mph - N/A   Clear
9:55 AM 46.4 °F 43.5 °F 33.8 °F 62% 30.31 in 10.0 mi NNW 5.8 mph - N/A   Clear
10:15 AM 46.4 °F 42.4 °F 32.0 °F 57% 30.32 in 10.0 mi NNW 8.1 mph - N/A   Clear
10:35 AM 46.4 °F 41.5 °F 30.2 °F 53% 30.32 in 10.0 mi NNW 10.4 mph - N/A   Clear
10:55 AM 46.4 °F 40.7 °F 28.4 °F 50% 30.32 in 10.0 mi NNW 12.7 mph - N/A   Clear
11:15 AM 48.2 °F - 23.0 °F 37% 30.33 in 10.0 mi NW 9.2 mph - N/A   Clear
11:55 AM 50.0 °F - 21.2 °F 32% 30.32 in 10.0 mi North 13.8 mph 19.6 mph N/A   Clear
12:15 PM 50.0 °F - 19.4 °F 30% 30.32 in 10.0 mi North 9.2 mph 19.6 mph N/A   Clear
12:35 PM 50.0 °F - 15.8 °F 26% 30.31 in 10.0 mi North 12.7 mph 19.6 mph N/A   Clear
12:55 PM 51.8 °F - 17.6 °F 26% 30.30 in 10.0 mi NNW 13.8 mph 20.7 mph N/A   Clear
1:15 PM 51.8 °F - 19.4 °F 28% 30.30 in 10.0 mi NNW 11.5 mph 17.3 mph N/A   Clear
1:35 PM 51.8 °F - 23.0 °F 33% 30.29 in 10.0 mi NNW 11.5 mph 17.3 mph N/A   Clear
1:55 PM 51.8 °F - 19.4 °F 28% 30.29 in 10.0 mi NNW 10.4 mph 18.4 mph N/A   Clear
2:15 PM 51.8 °F - 21.2 °F 30% 30.28 in 10.0 mi North 10.4 mph - N/A   Clear
2:35 PM 51.8 °F - 17.6 °F 26% 30.27 in 10.0 mi North 6.9 mph - N/A   Clear
2:55 PM 51.8 °F - 14.0 °F 22% 30.27 in 10.0 mi WNW 12.7 mph 19.6 mph N/A   Clear
3:15 PM 51.8 °F - 14.0 °F 22% 30.27 in 10.0 mi NNW 10.4 mph 19.6 mph N/A   Clear
3:35 PM 50.0 °F - 17.6 °F 28% 30.27 in 10.0 mi NNW 9.2 mph 18.4 mph N/A   Clear
3:55 PM 50.0 °F - 15.8 °F 26% 30.27 in 10.0 mi NW 10.4 mph 16.1 mph N/A   Clear
4:15 PM 50.0 °F - 14.0 °F 24% 30.27 in 10.0 mi NNW 11.5 mph 19.6 mph N/A   Clear
4:35 PM 50.0 °F - 15.8 °F 26% 30.28 in 10.0 mi NNW 6.9 mph - N/A   Clear
4:55 PM 50.0 °F - 17.6 °F 28% 30.28 in 10.0 mi NNW 11.5 mph 16.1 mph N/A   Clear
5:15 PM 48.2 °F - 17.6 °F 30% 30.29 in 10.0 mi NW 10.4 mph - N/A   Clear
5:35 PM 46.4 °F 40.4 °F 15.8 °F 29% 30.29 in 10.0 mi NNW 13.8 mph 19.6 mph N/A   Clear
5:55 PM 46.4 °F 41.1 °F 17.6 °F 32% 30.30 in 10.0 mi NNW 11.5 mph 19.6 mph N/A   Clear
6:15 PM 44.6 °F 40.7 °F 17.6 °F 34% 30.31 in 10.0 mi NNW 6.9 mph - N/A   Clear
6:35 PM 44.6 °F 41.4 °F 17.6 °F 34% 30.31 in 10.0 mi NNW 5.8 mph - N/A   Clear
6:55 PM 44.6 °F 40.7 °F 17.6 °F 34% 30.32 in 10.0 mi NNW 6.9 mph - N/A   Clear
7:15 PM 42.8 °F 38.0 °F 17.6 °F 36% 30.32 in 10.0 mi NNW 8.1 mph - N/A   Clear
7:35 PM 42.8 °F 38.6 °F 17.6 °F 36% 30.32 in 10.0 mi NNW 6.9 mph - N/A   Clear
7:55 PM 42.8 °F 38.6 °F 17.6 °F 36% 30.32 in 10.0 mi NNW 6.9 mph - N/A   Clear
8:15 PM 41.0 °F 39.0 °F 17.6 °F 39% 30.33 in 10.0 mi NNW 3.5 mph - N/A   Clear
8:35 PM 39.2 °F 35.9 °F 19.4 °F 45% 30.34 in 10.0 mi NNW 4.6 mph - N/A   Clear
8:55 PM 39.2 °F 35.9 °F 19.4 °F 45% 30.35 in 10.0 mi NNW 4.6 mph - N/A   Clear
9:15 PM 37.4 °F 33.8 °F 19.4 °F 48% 30.35 in 10.0 mi NW 4.6 mph - N/A   Clear
9:35 PM 37.4 °F 33.8 °F 19.4 °F 48% 30.36 in 10.0 mi NW 4.6 mph - N/A   Clear
9:55 PM 37.4 °F 34.9 °F 19.4 °F 48% 30.36 in 10.0 mi NW 3.5 mph - N/A   Clear
10:15 PM 37.4 °F 34.9 °F 19.4 °F 48% 30.37 in 10.0 mi NW 3.5 mph - N/A   Clear
10:35 PM 35.6 °F - 17.6 °F 48% 30.37 in 10.0 mi Calm Calm - N/A   Clear
10:55 PM 35.6 °F - 19.4 °F 52% 30.35 in 10.0 mi Calm Calm - N/A   Clear
11:15 PM 33.8 °F - 17.6 °F 52% 30.34 in 10.0 mi Calm Calm - N/A   Clear
11:35 PM 32.0 °F - 21.2 °F 64% 30.35 in 10.0 mi Calm Calm - N/A   Clear
11:55 PM 32.0 °F - 21.2 °F 64% 30.35 in 10.0 mi Calm Calm - N/A   Clear